Winslow, AZ

2:09 AM MST on April 30, 2017 (GMT -0700)
Winslow-Lindbergh Regional

Weather History for KINW - December, 2012

Change the Weather History Date:

Sunday, December 2, 2012

  Actual Average Record
Temperature  
Mean Temperature 48 °F 37 °F  
Max Temperature 68 °F 52 °F 70 °F (1995)
Min Temperature 28 °F 23 °F 9 °F (1991)
Degree Days  
Heating Degree Days 17 28  
Month to date heating degree days 30 55  
Since 1 July heating degree days 794 991  
Cooling Degree Days 0 0  
Month to date cooling degree days 0 0  
Year to date cooling degree days 1442 1208  
Moisture  
Dew Point 23 °F    
Average Humidity 40    
Maximum Humidity 58    
Minimum Humidity 22    
Precipitation  
Precipitation 0.00 in 0.01 in 0.38 in (1955)
Month to date precipitation 0.00 0.03  
Year to date precipitation 5.14 6.48  
Sea Level Pressure  
Sea Level Pressure 30.06 in    
Wind  
Wind Speed 8 mph (SSE)    
Max Wind Speed 20 mph    
Max Gust Speed 26 mph    
Visibility 10 miles    
Events      
T = Trace of Precipitation, MM = Missing Value Source: NWS Daily Summary

Daily Weather History Graph

Daily Weather History Graph

Search for Another Location

Airport or City:

Trip Planner

Search our weather history database for the weather conditions in past years. The results will help you decide how hot, cold, wet, or windy it might be!

Date:

Astronomy

Dec. 02, 2012 Rise Set
Actual Time 7:13 AM MST 5:11 PM MST
Civil Twilight 6:46 AM MST 5:38 PM MST
Nautical Twilight 6:14 AM MST 6:10 PM MST
Astronomical Twilight 5:44 AM MST 6:40 PM MST
Moon 8:58 PM MST (12/2) 10:08 AM MST (12/2)
Length of Visible Light 10h 52m
Length of Day
9h 57m
Waning Gibbous, 85% of the Moon is Illuminated
Dec 2
Waning Gibbous
Dec 6
Last Quarter
Dec 13
New
Dec 19
First Quarter
Dec 28
Full

Hourly Weather History & Observations

Time (MST) Temp. Windchill Dew Point Humidity Pressure Visibility Wind Dir Wind Speed Gust Speed Precip Events Conditions
12:56 AM 37.9 °F 34.4 °F 16.0 °F 41% 30.08 in 10.0 mi SE 4.6 mph - N/A   Clear
1:56 AM 35.1 °F 32.2 °F 16.0 °F 46% 30.06 in 10.0 mi ESE 3.5 mph - N/A   Clear
2:56 AM 34.0 °F - 16.0 °F 48% 30.07 in 10.0 mi Calm Calm - N/A   Clear
3:56 AM 32.0 °F - 16.0 °F 52% 30.09 in 10.0 mi Calm Calm - N/A   Clear
4:56 AM 33.1 °F 30.0 °F 16.0 °F 50% 30.10 in 10.0 mi ESE 3.5 mph - N/A   Clear
5:56 AM 33.1 °F 25.5 °F 16.0 °F 50% 30.13 in 10.0 mi ESE 9.2 mph - N/A   Clear
6:56 AM 28.9 °F 25.2 °F 15.1 °F 56% 30.15 in 10.0 mi SE 3.5 mph - N/A   Clear
7:56 AM 30.9 °F - 16.0 °F 54% 30.17 in 10.0 mi Calm Calm - N/A   Clear
8:56 AM 37.4 °F 30.8 °F 17.6 °F 45% 30.18 in 10.0 mi ESE 9.2 mph - N/A   Clear
9:56 AM 45.0 °F 40.6 °F 18.0 °F 34% 30.12 in 10.0 mi ESE 8.1 mph - N/A   Clear
10:56 AM 53.6 °F - 19.4 °F 26% 30.16 in 10.0 mi East 4.6 mph - N/A   Clear
11:56 AM 60.1 °F - 21.0 °F 22% 30.04 in 10.0 mi East 6.9 mph - N/A   Clear
12:56 PM 66.9 °F - 26.1 °F 21% 29.99 in 10.0 mi WSW 11.5 mph 21.9 mph N/A   Clear
1:56 PM 68.0 °F - 28.0 °F 22% 29.97 in 10.0 mi WSW 13.8 mph 21.9 mph N/A   Clear
2:56 PM 68.0 °F - 28.9 °F 23% 29.96 in 10.0 mi WSW 15.0 mph 19.6 mph N/A   Clear
3:56 PM 64.9 °F - 28.0 °F 25% 29.97 in 10.0 mi WSW 13.8 mph - N/A   Clear
4:56 PM 62.6 °F - 28.4 °F 27% 30.07 in 10.0 mi WSW 16.1 mph - N/A   Clear
5:56 PM 57.0 °F - 28.0 °F 33% 30.04 in 10.0 mi SSW 10.4 mph - N/A   Clear
6:56 PM 53.1 °F - 28.0 °F 38% 30.06 in 10.0 mi ESE 4.6 mph - N/A   Clear
7:56 PM 54.0 °F - 30.9 °F 41% 30.05 in 10.0 mi South 12.7 mph - N/A   Clear
8:56 PM 53.1 °F - 30.9 °F 43% 30.04 in 10.0 mi SE 3.5 mph - N/A   Clear
9:56 PM 52.0 °F - 30.9 °F 45% 30.01 in 10.0 mi SSE 10.4 mph - N/A   Clear
10:56 PM 52.0 °F - 30.0 °F 43% 29.99 in 10.0 mi WSW 12.7 mph 17.3 mph N/A   Clear
11:56 PM 54.0 °F - 30.9 °F 41% 29.96 in 10.0 mi South 8.1 mph - N/A   Clear